Hourly Data Report for April 09, 2021

CLYDE RIVER A
NUNAVUT
Current Station Operator: NAVCAN

70°29'09.000" N
68°31'01.000" W
26.50 m
2400804
71090
YCY

Download Data

Hourly Data (April 2021)
Hourly Data Report for April 9, 2021
TIME
LST
Temp Definition
°C
Dew Point Definition
°C
Rel Hum Definition
%
Precip. Amount Definition
mm

Wind Dir Definition
10's deg

Wind Spd Definition
km/h
Visibility Definition
km
Stn Press Definition
kPa
Hmdx Definition


Wind Chill Definition


Weather Definition


00:00 -13.4 -14.7 90 0.0 31 48 1.2 101.20   -26 Snow,Blowing Snow
01:00 -13.2 -14.5 90 0.0 31 52 1.2 101.26   -26 Snow,Blowing Snow
02:00 -13.2 -14.4 91 0.0 31 46 1.2 101.37   -26 Snow,Blowing Snow
03:00 -13.0 -14.5 89 0.0 31 43 2.4 101.45   -25 Snow,Blowing Snow
04:00 -13.4 -14.7 90 0.0 30 32 4.8 101.55   -24 Snow
05:00 -13.2 -14.7 89 0.0 28 22 3.2 101.64   -22 Snow
06:00 -13.0 -15.2 84 0.0 27 15 16.1 101.76   -20 LegendNANA
07:00 -12.8 -15.3 82 0.0 25 22 16.1 101.80   -22 LegendNANA
08:00 -12.2 -15.0 80 0.0 30 26 16.1 101.83   -22 LegendNANA
09:00 -11.5 -15.3 74 0.0 29 26 16.1 101.87   -21 LegendNANA
10:00 -11.4 -14.8 76 0.0 30 21 16.1 101.91   -20 LegendNANA
11:00 -10.9 -13.8 79 0.0 29 18 16.1 101.93   -19 LegendNANA
12:00 -11.0 -13.5 82 0.0 24 9 16.1 101.98   -16 LegendNANA
13:00 -10.8 -13.3 82 0.0 24 11 16.1 102.00   -17 LegendNANA
14:00 -10.3 -13.3 79 0.0 24 4 16.1 101.99   -13 LegendNANA
15:00 -10.4 -13.9 76 0.0 13 21 16.1 102.00   -19 LegendNANA
16:00 -11.5 -13.8 83 0.0 12 18 16.1 101.96   -19 LegendNANA
17:00 -11.3 -14.6 77 0.0 14 18 16.1 101.94   -19 LegendNANA
18:00 -12.7 -14.9 84 0.0 13 8 16.1 101.93   -18 LegendNANA
19:00 -16.0 -17.6 88 0.0 34 11 16.1 101.89   -23 LegendNANA
20:00 -15.4 -17.3 85 0.0 32 5 16.1 101.88   -19 LegendNANA
21:00 -13.8 -16.1 83 0.0 30 15 16.1 101.84   -21 LegendNANA
22:00 -9.6 -13.8 72 0.0 25 9 16.1 101.82   -14 LegendNANA
23:00 -8.8 -12.1 77 0.0 LegendMM 4 16.1 101.82   -11 LegendNANA

Notes on Data Quality.

Legend

  • E = Estimated
  • M = Missing
  • NA = Not Available*
  • [empty] = Indicates an unobserved value
Date modified: